Regional Weather Roundup
Issued by NWS Sioux Falls, SD

Home | Current Version | Previous Version | Graphics & Text | Print | Product List | Glossary Off
Versions: 1 2 3 4 5 6 7 8 9 10 11 12 13 14 15 16 17 18 19 20 21 22 23 24 25 26 27 28 29 30 31 32 33 34 35 36 37 38 39 40 41 42 43 44 45 46 47 48 49 50

000
ASUS43 KFSD 262302
RWRFSD

WEATHER ROUNDUP FOR SE SOUTH DAKOTA/SW MINNESOTA/NW IOWA
NATIONAL WEATHER SERVICE SIOUX FALLS SD
600 PM CDT TUE MAY 26 2015

NOTE: "FAIR" INDICATES FEW OR NO CLOUDS BELOW 12,000 FEET WITH NO
SIGNIFICANT WEATHER AND OR OBSTRUCTIONS TO VISIBILITY.


SDZ038>040-050-052>070-270000-
SOUTHEAST SOUTH DAKOTA

CITY           SKY/WX    TMP DP  RH WIND       PRES   REMARKS
BROOKINGS      CLOUDY    68  52  56 N12       29.84F
CHAMBERLAIN    PTSUNNY   72  50  46 E12       29.88R
HURON          PTSUNNY   77  48  35 NE3G17    29.82F
MADISON        FAIR      66  54  63 N12       29.85S
MITCHELL       PTSUNNY   78  49  35 VRB6      29.84S
SIOUX FALLS    CLOUDY    68  53  58 N9        29.83S
WINNER         FAIR      77  46  33 N10       29.89F
YANKTON        MOSUNNY   72  52  49 NW8       29.83F
$$

MNZ071-072-080-081-089-090-097-098-270000-
SOUTHWEST MINNESOTA

CITY           SKY/WX    TMP DP  RH WIND       PRES   REMARKS
FAIRMONT       CLOUDY    57  52  82 NW12      29.80S
JACKSON        DRIZZLE   59  55  88 NW8       29.82F
LUVERNE        CLOUDY    64  54  68 N6        29.84S
MARSHALL       CLOUDY    63  52  67 CALM      29.81S
MONTEVIDEO     CLOUDY    68  57  68 CALM      29.81F
REDWOOD FALLS  CLOUDY    60  57  89 NW5       29.81R
TRACY          CLOUDY    61  57  87 CALM      29.82F
WINDOM         LGT RAIN  57  55  94 NW9       29.82S
WORTHINGTON    CLOUDY    61  52  72 N10       29.83S
$$

IAZ001>003-012>014-020>022-031-032-NEZ013-014-SDZ071-270000-
NORTHWEST IOWA

CITY           SKY/WX    TMP DP  RH WIND       PRES   REMARKS
DENISON        CLOUDY    63  61  94 NW8       29.82S
ESTHERVILLE    CLOUDY    59  56  89 NW12      29.81S
SIOUX CITY     SUNNY     68  54  60 N15       29.84S
SPENCER        CLOUDY    60  56  86 NW12      29.82S
$$

ABBREVIATIONS USED IN REMARKS
   TC - TEMPERATURE IN CELSIUS
  WCI - WIND CHILL INDEX
   HX - HEAT INDEX
  VSB - VISIBILITY




USA.gov is the U.S. government's official web portal to all federal, state and local government web resources and services.